Wind_Speed
29 29 31 35 36 38 40 42 45 46 47 49 49 47 48 50 51 53 52 56 63 60 69 65 71 75 71 67 66 63 61 59 59 58 55 52 42 40 40 41 35 36 34 37
26 27 29 31 34 35 37 40 43 44 46 48 49 47 50 53 53 54 55 55 56 57 61 64 67 71 75 66 62 64 64 61 59 53 55 55 50 45 45 46 41 36 40 42
23 25 27 28 30 33 36 39 42 45 47 48 52 50 50 52 54 57 59 59 58 58 57 59 63 62 72 75 78 68 65 66 63 61 61 58 55 49 47 45 40 43 46 48
23 24 26 28 29 29 31 34 37 38 41 44 47 53 51 52 55 58 60 60 62 62 62 58 56 59 62 62 72 73 69 67 69 66 63 57 53 48 46 44 46 51 44 47
25 25 26 26 27 29 30 31 34 36 39 42 43 49 49 52 54 56 60 63 64 65 64 64 62 59 59 62 61 75 75 73 71 67 67 61 55 46 49 52 50 41 40 46
24 25 24 25 24 26 30 33 35 37 40 43 44 49 47 51 54 56 59 63 66 68 68 66 65 63 62 61 63 65 70 69 71 78 75 68 61 47 38 35 37 40 43 48
19 20 23 24 25 27 29 31 35 38 39 42 44 51 47 52 55 59 60 61 63 66 68 69 68 66 64 64 64 62 65 65 63 61 68 65 48 39 35 37 44 45 44 45
20 19 20 21 25 27 26 29 33 40 41 46 45 50 47 48 53 55 58 59 62 63 65 68 70 69 67 66 64 64 63 62 59 57 58 55 48 39 41 45 47 47 44 38
24 20 17 21 22 26 31 30 31 36 38 43 44 45 45 38 42 36 38 50 57 60 64 66 68 69 68 68 66 63 61 61 60 58 55 54 48 45 44 45 47 45 40 35
26 25 17 20 22 26 29 29 32 36 40 42 43 41 33 23 26 34 33 34 33 38 51 62 63 67 67 67 67 66 61 59 57 57 51 47 46 46 46 45 44 39 38 36
23 25 22 17 18 21 24 27 32 36 38 39 43 38 25 23 28 25 32 32 32 31 32 40 48 58 65 67 65 65 64 57 53 53 50 45 43 46 47 46 40 36 36 34
22 26 23 16 16 17 21 25 30 34 34 40 43 45 30 28 32 27 23 25 26 32 36 37 38 46 58 63 66 63 62 60 52 48 46 44 43 41 42 41 37 34 32 33
20 23 20 16 17 20 23 24 30 32 33 36 40 32 16 18 19 26 25 25 25 31 36 36 37 41 50 60 65 62 60 59 53 48 45 44 41 38 36 36 33 31 33 31
21 19 20 18 17 24 23 22 24 29 35 34 38 35 24 21 21 23 24 21 26 30 28 27 37 37 53 62 64 60 58 56 53 47 45 43 43 39 37 35 31 32 30 29
21 18 19 20 24 22 21 22 18 25 22 29 25 29 22 23 24 24 24 25 24 24 19 24 31 37 50 55 61 57 53 53 51 48 47 48 45 39 36 31 31 30 27 28
21 15 18 11 23 22 18 18 21 23 23 26 27 28 22 24 27 29 27 30 26 23 20 14 34 36 46 61 61 57 58 55 51 47 48 45 40 34 33 33 29 26 27 27
13 12 16 8 21 20 18 20 20 20 22 25 23 19 22 24 29 33 36 36 25 23 18 24 36 35 50 59 63 60 57 52 48 43 44 41 39 37 34 30 28 27 25 24
11 12 15 12 17 17 18 23 24 22 21 26 26 25 27 26 27 25 30 34 30 18 11 22 29 38 43 43 54 50 48 48 45 41 42 42 37 34 31 27 27 24 24 26
12 13 17 19 20 17 15 24 26 25 19 28 29 28 24 29 26 25 25 29 15 15 14 23 31 28 41 36 31 40 48 48 46 41 42 39 36 32 28 26 26 25 26 26
17 19 16 20 23 21 20 21 25 30 28 30 24 25 31 29 29 19 26 19 12 13 18 29 23 21 30 29 26 46 48 52 47 44 43 39 35 31 27 26 25 25 25 24
19 18 20 20 24 22 25 23 28 34 41 41 37 31 33 26 22 18 30 12 7 10 14 14 18 15 16 30 32 50 49 55 51 46 42 36 32 27 27 26 24 24 23 23
22 21 21 21 24 24 22 25 32 33 46 48 42 30 29 22 15 20 21 11 12 10 12 19 17 15 18 22 39 48 54 51 42 47 37 34 30 28 26 24 23 23 21 20
18 21 21 23 20 27 29 32 38 41 52 54 43 31 20 13 16 16 18 13 13 12 14 20 20 16 15 21 44 53 51 47 49 40 37 33 30 26 23 22 23 20 20 19
19 19 19 21 23 28 28 36 45 48 50 45 32 17 12 12 16 16 17 10 12 16 18 15 14 17 25 27 41 48 51 43 43 38 32 28 24 24 23 21 18 18 19 18
22 18 18 21 24 26 30 40 43 41 35 20 11 9 11 13 16 21 18 16 15 12 13 11 18 20 33 45 47 40 46 41 36 31 28 28 24 22 22 20 20 19 16 15
17 18 16 21 31 36 40 42 35 15 8 4 4 10 8 13 21 21 15 12 15 17 11 18 21 36 44 50 48 44 40 34 29 28 27 25 24 22 21 20 18 15 14 16
Wind_Direction
241 240 242 247 247 247 249 251 252 252 250 252 253 248 247 246 245 245 242 239 241 238 233 230 230 228 234 246 242 240 246 250 249 249 253 255 255 261 264 271 276 284 289 288
246 244 242 244 247 248 249 250 253 255 255 255 252 245 246 249 248 247 245 244 241 241 241 236 233 235 234 231 240 243 240 244 248 248 251 256 258 256 261 264 270 281 287 282
253 253 254 253 252 252 253 254 255 257 256 258 259 251 248 246 246 246 246 243 243 243 239 239 238 239 232 233 233 241 237 243 243 249 252 255 258 259 263 266 274 275 282 278
252 254 258 261 263 264 262 262 262 263 264 262 261 257 252 251 250 250 247 247 245 242 242 238 239 239 240 240 232 234 242 241 243 247 250 255 257 261 264 270 272 276 275 277
259 258 261 265 267 266 266 264 265 267 269 269 267 264 254 256 253 250 249 249 247 246 242 241 237 234 236 239 237 238 236 247 247 248 254 256 258 259 264 270 273 261 269 269
265 270 272 269 265 263 262 263 264 266 268 268 273 273 261 261 261 255 251 249 248 246 244 242 241 236 232 232 237 238 240 242 249 253 255 259 262 269 268 261 264 269 264 267
270 270 274 274 267 265 270 276 281 281 284 280 283 278 272 269 266 260 254 250 246 245 246 243 242 241 236 231 231 233 237 240 245 249 254 258 259 262 263 268 271 268 263 266
276 273 284 282 281 285 288 288 291 293 296 293 288 282 274 265 261 263 258 256 251 247 244 245 243 241 240 236 231 231 234 239 242 247 251 253 254 254 256 260 258 259 263 269
280 275 278 274 278 282 288 290 296 295 294 301 300 291 277 265 252 265 268 259 254 251 245 240 241 241 239 240 237 233 230 233 236 240 246 251 250 246 248 250 253 257 262 263
273 276 272 259 268 281 288 298 296 299 300 298 301 292 287 237 257 259 264 268 266 263 255 246 239 238 239 237 238 237 231 229 231 235 238 244 246 246 247 247 251 256 258 254
278 278 287 259 261 273 289 292 291 295 296 296 294 284 268 260 276 285 277 274 274 274 266 256 250 237 233 235 235 236 236 229 229 233 234 236 237 239 242 243 248 251 252 254
272 277 280 262 275 282 288 284 291 293 296 295 286 293 274 274 283 288 273 280 276 279 278 263 249 244 230 229 232 231 234 233 227 227 230 230 233 235 238 239 246 251 248 249
274 272 264 252 265 275 285 297 293 284 286 294 287 303 272 287 272 279 280 276 277 272 273 273 259 241 226 220 224 226 228 229 227 224 226 227 232 238 240 240 243 245 242 245
259 259 250 250 275 282 283 293 294 295 288 298 301 294 265 268 268 271 275 276 282 284 269 252 248 242 217 213 213 217 221 223 224 221 223 226 229 234 234 235 234 234 237 242
265 251 246 254 275 287 291 298 299 293 306 300 317 305 269 258 266 266 269 272 276 281 265 250 251 224 223 209 205 208 212 215 216 215 219 224 223 227 229 228 227 231 235 240
272 245 251 253 273 284 289 302 298 301 300 309 312 313 298 271 270 268 259 275 270 280 271 227 237 226 222 204 202 201 206 208 208 206 211 218 220 221 219 220 225 227 234 245
245 254 267 254 263 282 294 292 298 308 302 305 304 299 286 284 285 283 272 270 263 266 277 212 227 225 217 209 211 204 203 203 204 205 205 209 211 213 214 216 220 224 232 234
240 274 280 270 274 285 291 294 299 303 304 310 309 296 287 282 291 281 274 268 262 264 236 197 216 225 210 215 219 211 202 195 196 197 201 205 204 208 208 211 218 221 225 233
257 259 268 276 281 295 297 296 302 313 320 311 309 301 290 289 293 302 278 255 249 254 241 221 195 210 216 220 218 212 198 192 187 187 197 197 197 200 202 209 216 220 229 238
267 261 268 287 296 306 307 304 307 309 312 315 305 292 289 283 278 280 267 246 225 211 218 220 236 209 220 203 211 191 187 184 181 186 193 190 188 197 200 208 218 226 228 227
268 269 278 288 293 304 301 300 307 314 314 315 312 303 289 283 276 240 247 241 211 201 228 209 232 232 242 215 207 191 190 185 178 180 184 179 188 191 204 211 217 217 220 225
274 269 273 281 290 299 299 302 312 308 309 311 309 307 289 285 250 243 229 183 222 226 238 234 252 237 211 204 194 185 188 186 176 177 169 178 186 196 204 209 210 217 220 222
282 274 270 281 288 291 295 311 306 297 302 306 311 308 289 246 237 216 185 197 230 227 232 252 251 230 225 201 184 182 181 173 163 162 171 180 189 197 195 203 212 217 214 209
279 281 286 282 295 293 291 298 304 304 303 307 308 294 265 219 217 188 178 193 222 242 246 259 224 205 218 200 195 180 165 155 164 163 171 181 183 186 195 201 206 201 205 209
288 301 298 294 289 296 297 300 303 301 299 301 303 270 238 209 193 177 185 213 234 234 255 195 203 174 169 175 179 171 152 158 158 162 174 177 178 183 188 193 199 203 209 207
330 320 309 312 312 309 313 313 308 301 279 266 261 262 214 191 173 167 183 217 233 238 236 209 222 129 136 135 137 147 153 153 155 164 173 172 177 186 195 201 203 202 202 203
Height
5695 5699 5699 5699 5701 5704 5706 5706 5707 5710 5714 5715 5718 5725 5728 5730 5734 5736 5740 5744 5747 5752 5760 5763 5765 5769 5775 5774 5776 5785 5790 5794 5800 5806 5808 5813 5818 5822 5823 5824 5825 5825 5823 5822
5690 5691 5692 5692 5693 5695 5697 5698 5699 5701 5702 5704 5707 5714 5716 5717 5721 5724 5727 5731 5736 5741 5746 5751 5754 5756 5761 5767 5768 5770 5774 5780 5787 5792 5796 5801 5807 5811 5813 5815 5817 5817 5815 5813
5683 5684 5684 5684 5686 5686 5687 5687 5688 5689 5691 5693 5691 5700 5705 5708 5708 5709 5711 5716 5722 5728 5733 5737 5741 5745 5748 5753 5758 5760 5765 5769 5771 5777 5782 5789 5794 5800 5803 5806 5808 5808 5805 5804
5677 5677 5676 5676 5677 5678 5679 5678 5678 5679 5679 5681 5683 5684 5690 5695 5695 5696 5699 5702 5704 5712 5716 5723 5729 5734 5738 5745 5745 5750 5755 5759 5763 5766 5770 5776 5783 5788 5794 5796 5798 5797 5795 5796
5670 5669 5669 5669 5669 5668 5669 5669 5668 5668 5668 5668 5671 5668 5683 5678 5680 5682 5684 5686 5690 5693 5700 5706 5712 5719 5725 5729 5735 5740 5746 5749 5754 5758 5762 5767 5772 5781 5783 5783 5785 5784 5785 5785
5663 5662 5662 5662 5661 5661 5660 5660 5659 5659 5658 5659 5657 5653 5671 5665 5663 5664 5667 5668 5672 5676 5682 5690 5696 5703 5711 5715 5720 5727 5733 5741 5745 5746 5753 5757 5764 5771 5771 5772 5773 5774 5776 5774
5658 5657 5655 5654 5653 5652 5652 5650 5648 5648 5646 5648 5646 5639 5656 5650 5646 5646 5647 5648 5652 5659 5665 5674 5679 5685 5693 5701 5707 5714 5720 5727 5733 5737 5742 5747 5754 5759 5760 5761 5761 5763 5765 5767
5650 5651 5647 5645 5643 5642 5642 5642 5639 5633 5633 5632 5633 5631 5636 5634 5630 5627 5626 5628 5634 5643 5651 5656 5661 5669 5677 5685 5693 5700 5707 5714 5720 5726 5730 5736 5744 5750 5751 5753 5754 5755 5758 5758
5639 5640 5640 5638 5637 5636 5634 5633 5633 5627 5625 5619 5620 5617 5620 5620 5618 5613 5611 5614 5618 5622 5629 5637 5643 5650 5659 5668 5677 5685 5694 5702 5708 5714 5721 5727 5734 5738 5741 5743 5743 5746 5748 5749
5630 5631 5634 5633 5631 5629 5626 5626 5623 5619 5614 5610 5612 5605 5606 5608 5608 5604 5603 5603 5606 5607 5611 5618 5626 5634 5642 5649 5659 5668 5679 5690 5698 5704 5710 5717 5723 5727 5731 5734 5736 5739 5740 5740
5623 5622 5624 5625 5625 5624 5622 5619 5616 5613 5608 5602 5597 5598 5602 5601 5598 5598 5600 5599 5598 5598 5598 5601 5606 5613 5621 5633 5644 5653 5665 5678 5688 5695 5702 5707 5713 5717 5721 5725 5728 5730 5731 5732
5616 5614 5615 5617 5617 5616 5615 5613 5610 5604 5602 5595 5589 5585 5591 5591 5591 5592 5593 5591 5590 5588 5587 5587 5591 5595 5605 5618 5626 5640 5652 5665 5677 5685 5691 5697 5702 5706 5710 5714 5718 5720 5722 5723
5609 5608 5608 5611 5612 5611 5608 5606 5602 5597 5593 5589 5582 5579 5582 5582 5584 5584 5583 5581 5578 5577 5576 5579 5580 5581 5588 5599 5611 5628 5640 5651 5662 5672 5680 5685 5691 5696 5701 5705 5709 5712 5714 5717
5601 5601 5602 5604 5605 5603 5603 5601 5596 5591 5585 5582 5574 5571 5576 5575 5575 5575 5573 5570 5570 5570 5567 5566 5567 5572 5576 5583 5597 5614 5628 5640 5651 5663 5670 5675 5681 5688 5693 5697 5701 5704 5707 5710
5594 5596 5596 5598 5598 5597 5595 5593 5590 5585 5580 5572 5571 5563 5566 5568 5566 5565 5563 5562 5561 5558 5555 5555 5558 5561 5565 5573 5586 5603 5617 5629 5640 5650 5659 5667 5672 5679 5685 5689 5693 5696 5700 5703
5589 5592 5591 5594 5591 5590 5589 5586 5583 5579 5575 5568 5563 5560 5560 5559 5556 5555 5555 5555 5553 5548 5549 5545 5549 5552 5555 5564 5576 5591 5604 5615 5628 5640 5651 5660 5668 5674 5678 5681 5686 5691 5694 5696
5584 5586 5586 5588 5585 5584 5584 5581 5577 5573 5568 5564 5559 5556 5553 5550 5548 5546 5545 5543 5544 5542 5538 5537 5540 5546 5552 5561 5570 5580 5594 5607 5622 5633 5642 5652 5660 5666 5670 5676 5680 5684 5687 5690
5581 5581 5580 5582 5581 5580 5578 5573 5570 5567 5563 5557 5553 5551 5547 5543 5541 5539 5534 5533 5534 5533 5531 5532 5537 5543 5550 5558 5567 5578 5590 5602 5613 5624 5636 5644 5652 5660 5666 5670 5675 5678 5682 5685
5578 5577 5576 5575 5574 5575 5573 5567 5563 5559 5560 5552 5548 5543 5539 5534 5532 5532 5526 5524 5526 5527 5529 5532 5535 5541 5548 5557 5565 5575 5585 5596 5608 5619 5631 5638 5646 5655 5661 5666 5670 5674 5677 5680
5573 5572 5572 5570 5567 5566 5566 5560 5556 5550 5547 5545 5542 5538 5531 5530 5527 5528 5520 5521 5523 5525 5528 5532 5534 5538 5545 5554 5562 5570 5579 5590 5602 5616 5626 5632 5641 5651 5656 5662 5666 5669 5672 5675
5569 5568 5566 5564 5560 5561 5557 5553 5550 5544 5541 5533 5530 5526 5520 5519 5520 5521 5516 5518 5520 5522 5524 5528 5534 5539 5541 5549 5554 5565 5572 5583 5591 5608 5618 5627 5638 5645 5651 5657 5661 5665 5667 5670
5565 5563 5561 5560 5557 5554 5551 5548 5543 5538 5530 5524 5518 5515 5510 5512 5513 5513 5514 5518 5520 5522 5525 5529 5533 5537 5542 5545 5551 5561 5570 5576 5595 5604 5615 5627 5635 5643 5649 5653 5657 5660 5663 5665
5560 5557 5556 5554 5554 5548 5544 5538 5533 5526 5519 5510 5506 5504 5503 5505 5507 5509 5514 5518 5521 5524 5526 5528 5530 5537 5542 5547 5555 5560 5571 5582 5595 5605 5616 5626 5633 5640 5644 5649 5653 5655 5659 5662
5554 5552 5551 5549 5549 5543 5538 5533 5525 5517 5507 5502 5497 5497 5497 5500 5504 5509 5516 5520 5524 5526 5527 5529 5531 5535 5540 5548 5556 5560 5574 5582 5597 5605 5616 5624 5631 5636 5641 5644 5648 5652 5655 5658
5550 5551 5548 5545 5541 5536 5531 5524 5515 5508 5500 5496 5491 5491 5494 5499 5503 5510 5517 5521 5525 5526 5528 5534 5534 5536 5539 5546 5553 5561 5576 5591 5598 5606 5616 5624 5628 5633 5638 5642 5646 5649 5652 5656
5549 5546 5542 5539 5534 5526 5519 5511 5504 5500 5496 5494 5492 5490 5493 5498 5504 5512 5518 5522 5527 5529 5532 5536 5535 5540 5545 5553 5564 5576 5586 5593 5600 5611 5619 5622 5627 5632 5636 5640 5644 5647 5650 5655